Weather History for Greensboro, NC

Change the Weather History Date:

Wednesday, August 20, 2014

  Actual Average Record
Temperature  
Mean Temperature 80 °F 77 °F  
Max Temperature 89 °F 86 °F 101 °F (1914)
Min Temperature 71 °F 68 °F 52 °F (1943)
Degree Days  
Heating Degree Days 0 0  
Month to date heating degree days 0 0  
Since 1 June heating degree days 0 6  
Since 1 July heating degree days 0 0  
Cooling Degree Days 15 12  
Month to date cooling degree days 181 255  
Year to date cooling degree days 1119 1140  
Since 1 June cooling degree days 922 981  
Growing Degree Days 30 (Base 50)    
Moisture  
Dew Point 71 °F    
Average Humidity 78    
Maximum Humidity 100    
Minimum Humidity 55    
Precipitation  
Precipitation 0.00 in 0.13 in 1.64 in (1961)
Month to date precipitation 2.66 2.45  
Year to date precipitation 25.88 27.36  
Sea Level Pressure  
Sea Level Pressure 29.96 in    
Wind  
Wind Speed 5 mph (NW)    
Max Wind Speed 12 mph    
Max Gust Speed 21 mph    
Visibility 7 miles    
Events Fog    
T = Trace of Precipitation, MM = Missing Value Source: NWS Daily Summary

Daily Weather History Graph

Daily Weather History Graph

Search for Another Location

Airport:

Trip Planner

Search our weather history database for the weather conditions in past years. The results will help you decide how hot, cold, wet, or windy it might be!

Date:

Astronomy

Aug. 20, 2014 Rise Set
Actual Time 6:42 AM EDT 8:03 PM EDT
Civil Twilight 6:15 AM EDT 8:30 PM EDT
Nautical Twilight 5:42 AM EDT 9:02 PM EDT
Astronomical Twilight 5:09 AM EDT 9:36 PM EDT
Moon 2:23 AM EDT 4:44 PM EDT
Length of Visible Light 14h 15m
Length of Day
13h 21m
Waning Crescent, 21% of the Moon is Illuminated
Aug 20
Waning Crescent
Aug 25
New
Sep 2
First Quarter
Sep 8
Full
Sep 15
Last Quarter

Hourly Weather History & Observations

Time (EDT) Temp. Heat Index Dew Point Humidity Pressure Visibility Wind Dir Wind Speed Gust Speed Precip Events Conditions
12:54 AM 73.9 °F - 71.1 °F 91% 29.87 in 10.0 mi Calm Calm - N/A   Mostly Cloudy
1:54 AM 73.0 °F - 71.1 °F 93% 29.88 in 8.0 mi Calm Calm - N/A   Mostly Cloudy
2:54 AM 73.0 °F - 71.1 °F 93% 29.89 in 8.0 mi North 4.6 mph - N/A   Mostly Cloudy
3:54 AM 72.0 °F - 71.1 °F 97% 29.89 in 8.0 mi NNE 4.6 mph - N/A   Scattered Clouds
4:54 AM 72.0 °F - 70.0 °F 93% 29.90 in 7.0 mi NNE 3.5 mph - N/A   Mostly Cloudy
5:54 AM 71.1 °F - 70.0 °F 96% 29.91 in 6.0 mi ENE 3.5 mph - N/A   Mostly Cloudy
6:42 AM 71.6 °F - 69.8 °F 94% 29.96 in 4.0 mi NNE 3.5 mph - N/A   Mostly Cloudy
6:46 AM 71.6 °F - 69.8 °F 94% 29.96 in 1.5 mi NNE 3.5 mph - N/A   Mostly Cloudy
6:54 AM 71.1 °F - 70.0 °F 96% 29.94 in 1.5 mi NNE 4.6 mph - N/A   Mostly Cloudy
7:03 AM 71.6 °F - 69.8 °F 94% 29.97 in 0.8 mi NNE 5.8 mph - N/A   Overcast
7:07 AM 71.6 °F - 69.8 °F 94% 29.97 in 0.2 mi NE 4.6 mph - N/A Fog Fog
7:22 AM 71.6 °F - 69.8 °F 94% 29.98 in 0.1 mi NNE 3.5 mph - N/A Fog Fog
7:54 AM 71.1 °F - 71.1 °F 100% 29.96 in 0.1 mi NNE 3.5 mph - N/A Fog Fog
8:54 AM 71.1 °F - 71.1 °F 100% 29.98 in 0.2 mi Calm Calm - N/A Fog Fog
9:20 AM 71.6 °F - 71.6 °F 100% 30.01 in 0.8 mi Calm Calm - N/A   Overcast
9:54 AM 72.0 °F - 71.1 °F 97% 30.00 in 0.8 mi Calm Calm - N/A   Overcast
10:10 AM 71.6 °F - 71.6 °F 100% 30.03 in 1.5 mi Calm Calm - N/A   Overcast
10:27 AM 73.4 °F - 71.6 °F 94% 30.04 in 5.0 mi NW 3.5 mph - N/A   Overcast
10:54 AM 78.1 °F - 72.0 °F 81% 30.01 in 6.0 mi Calm Calm - N/A   Haze
11:02 AM 78.8 °F - 73.4 °F 83% 30.04 in 7.0 mi SE 3.5 mph - N/A   Mostly Cloudy
11:54 AM 82.0 °F 86.7 °F 72.0 °F 71% 30.00 in 10.0 mi Calm Calm - N/A   Mostly Cloudy
12:03 PM 82.4 °F 87.2 °F 71.6 °F 70% 30.02 in 10.0 mi Calm Calm - N/A   Mostly Cloudy
12:18 PM 80.6 °F 84.6 °F 71.6 °F 74% 30.00 in 10.0 mi SE 8.1 mph - N/A   Mostly Cloudy
12:54 PM 82.9 °F 87.5 °F 71.1 °F 67% 29.97 in 10.0 mi WSW 6.9 mph - N/A   Mostly Cloudy
1:54 PM 84.0 °F 89.0 °F 71.1 °F 65% 29.96 in 10.0 mi West 5.8 mph - N/A   Mostly Cloudy
2:54 PM 87.1 °F 92.8 °F 71.1 °F 59% 29.95 in 10.0 mi WSW 10.4 mph - N/A   Mostly Cloudy
3:54 PM 88.0 °F 92.1 °F 69.1 °F 53% 29.95 in 10.0 mi WSW 8.1 mph - N/A   Mostly Cloudy
4:54 PM 86.0 °F 90.1 °F 69.1 °F 57% 29.94 in 10.0 mi West 8.1 mph - N/A   Mostly Cloudy
5:54 PM 87.1 °F 92.0 °F 70.0 °F 57% 29.94 in 10.0 mi West 8.1 mph - N/A   Mostly Cloudy
6:54 PM 84.9 °F 88.8 °F 69.1 °F 59% 29.95 in 10.0 mi WSW 9.2 mph - N/A   Scattered Clouds
7:54 PM 82.0 °F 85.9 °F 70.0 °F 67% 29.95 in 10.0 mi SW 5.8 mph - N/A   Scattered Clouds
8:54 PM 80.1 °F 83.2 °F 70.0 °F 71% 29.97 in 10.0 mi SSW 4.6 mph - N/A   Mostly Cloudy
9:54 PM 80.1 °F 83.6 °F 71.1 °F 74% 30.01 in 10.0 mi WSW 6.9 mph - N/A   Mostly Cloudy
10:54 PM 77.0 °F - 71.1 °F 82% 30.01 in 10.0 mi WSW 5.8 mph - N/A   Mostly Cloudy
11:54 PM 77.0 °F - 71.1 °F 82% 30.00 in 10.0 mi West 5.8 mph - N/A   Scattered Clouds